DW6954 Weather Reports


Display with metric or nautical units.
time (UTC)temp
F
wind
direction
speed
MPH
gust
MPH
rain 1hr
in
rain 24hr
in
rain mn
in
humidity
%
barometer
mb
20260505113043 58 327 0.0 1.0 0.00 0.00 0.00 75 1018.7
20260505112542 58 346 0.0 2.0 0.00 0.00 0.00 75 1018.7
20260505112042 58 303 0.0 2.0 0.00 0.00 0.00 74 1018.8
20260505111551 58 6 0.0 2.0 0.00 0.00 0.00 74 1018.7
20260505111042 58 339 0.0 3.0 0.00 0.00 0.00 74 1018.7
20260505110542 58 327 0.0 3.0 0.00 0.00 0.00 74 1018.7
20260505102039 59 267 0.0 1.0 0.00 0.00 0.00 73 1018.6
20260505101539 59 331 0.0 3.0 0.00 0.00 0.00 73 1018.6
20260505101042 59 16 0.0 3.0 0.00 0.00 0.00 73 1018.6
20260505100542 59 22 0.0 3.0 0.00 0.00 0.00 73 1018.6
20260505100048 58 335 0.0 3.0 0.00 0.00 0.00 72 1018.6
20260505095543 58 310 0.0 2.0 0.00 0.01 0.00 72 1018.6
20260505095037 58 338 0.0 1.0 0.00 0.01 0.00 71 1018.6
20260505094537 58 336 0.0 1.0 0.00 0.01 0.00 71 1018.6
20260505093538 58 351 0.0 0.0 0.00 0.01 0.00 71 1018.6
20260505093039 58 351 0.0 1.0 0.00 0.01 0.00 71 1018.6
20260505092537 58 34 0.0 1.0 0.00 0.01 0.00 72 1018.6
20260505092036 58 34 0.0 1.0 0.00 0.01 0.00 72 1018.5
20260505091551 58 34 0.0 1.0 0.00 0.01 0.00 72 1018.5
20260505091039 58 359 0.0 1.0 0.00 0.01 0.00 73 1018.5
20260505090538 58 324 0.0 1.0 0.00 0.01 0.00 73 1018.5
20260505090050 58 324 0.0 0.0 0.00 0.01 0.00 73 1018.3
20260505085536 58 324 0.0 1.0 0.00 0.01 0.00 73 1018.4
20260505085035 58 324 0.0 1.0 0.00 0.01 0.00 74 1018.4
20260505084537 58 310 0.0 1.0 0.00 0.01 0.00 74 1018.4
20260505084034 58 307 0.0 1.0 0.00 0.01 0.00 74 1018.4
20260505083534 58 1 0.0 0.0 0.00 0.01 0.00 75 1018.3
20260505083042 58 1 0.0 0.0 0.00 0.01 0.00 75 1018.3
20260505082533 58 1 0.0 0.0 0.00 0.01 0.00 75 1018.2
20260505082032 58 1 0.0 0.0 0.00 0.01 0.00 75 1018.1
20260505081549 58 1 0.0 0.0 0.00 0.01 0.00 75 1018.1
20260505081032 58 1 0.0 0.0 0.00 0.01 0.00 74 1018.0
20260505080534 58 1 0.0 0.0 0.00 0.01 0.00 74 1018.0
20260505080041 58 1 0.0 0.0 0.00 0.01 0.00 74 1017.9
20260505075530 58 1 0.0 0.0 0.00 0.01 0.00 74 1017.8
20260505075029 58 1 0.0 0.0 0.00 0.01 0.00 74 1017.9
20260505074528 58 1 0.0 1.0 0.00 0.01 0.00 74 1017.8
20260505074028 58 1 0.0 1.0 0.00 0.01 0.00 74 1017.7
20260505073028 59 348 0.0 0.0 0.00 0.01 0.00 73 1017.6
20260505072527 59 348 0.0 0.0 0.00 0.01 0.00 73 1017.6
20260505072027 59 348 0.0 1.0 0.00 0.01 0.00 73 1017.6
20260505071529 59 350 0.0 1.0 0.00 0.01 0.00 73 1017.5
20260505071026 59 298 0.0 1.0 0.00 0.01 0.00 73 1017.5
20260505070525 59 288 0.0 1.0 0.00 0.01 0.00 72 1017.4
20260505070027 59 290 0.0 1.0 0.00 0.01 0.00 72 1017.4
20260505065524 59 12 0.0 2.0 0.00 0.01 0.00 73 1017.4
20260505065024 59 277 0.0 2.0 0.00 0.01 0.00 72 1017.4
20260505064524 59 285 0.0 1.0 0.00 0.01 0.00 72 1017.4
20260505064026 59 299 0.0 2.0 0.00 0.01 0.00 72 1017.4
20260505063523 59 303 0.0 4.0 0.00 0.01 0.00 72 1017.4
20260505063033 59 291 1.0 4.0 0.00 0.01 0.00 72 1017.3
20260505062523 59 300 1.0 4.0 0.00 0.01 0.00 72 1017.3
20260505062024 60 298 0.0 2.0 0.00 0.01 0.00 72 1017.3
20260505061530 60 296 0.0 3.0 0.00 0.01 0.00 71 1017.3
20260505061022 60 303 0.0 3.0 0.00 0.01 0.00 71 1017.3
20260505060522 60 275 0.0 2.0 0.00 0.01 0.00 71 1017.2
20260505060022 60 317 0.0 2.0 0.00 0.01 0.00 70 1017.3
20260505055521 60 284 0.0 2.0 0.00 0.01 0.00 70 1017.2
20260505055023 60 350 0.0 3.0 0.00 0.01 0.00 70 1017.1
20260505054524 60 296 1.0 5.0 0.00 0.01 0.00 70 1017.1
20260505054020 60 277 0.0 5.0 0.00 0.01 0.00 69 1017.0
20260505053520 60 322 0.0 3.0 0.00 0.01 0.00 69 1017.0
20260505053020 60 292 0.0 4.0 0.00 0.01 0.00 69 1017.0
20260505052519 60 277 0.0 4.0 0.00 0.01 0.00 69 1016.9
20260505052019 60 296 0.0 3.0 0.00 0.01 0.00 69 1016.9
20260505051520 60 281 1.0 5.0 0.00 0.01 0.00 68 1016.8
20260505051019 60 324 1.0 8.0 0.00 0.01 0.00 68 1016.8
20260505050518 60 287 3.0 8.0 0.00 0.01 0.00 68 1016.8
20260505041517 60 275 1.0 6.0 0.00 0.01 0.00 66 1016.4
20260505041017 60 282 1.0 6.0 0.00 0.01 0.00 66 1016.4
20260505040517 61 284 1.0 4.0 0.00 0.01 0.00 67 1016.4
20260505040017 61 262 1.0 6.0 0.00 0.01 0.00 66 1016.4
20260505035516 60 166 0.0 6.0 0.00 0.01 0.00 66 1016.3
20260505035016 60 284 1.0 5.0 0.00 0.01 0.00 66 1016.3
20260505034518 60 275 0.0 5.0 0.00 0.01 0.00 67 1016.3
20260505034018 60 329 1.0 5.0 0.00 0.01 0.00 67 1016.3
20260505033520 60 153 2.0 10.0 0.00 0.01 0.00 67 1016.4
20260505033028 60 310 2.0 7.0 0.00 0.01 0.00 68 1016.3
20260505032516 59 279 2.0 8.0 0.00 0.01 0.00 68 1016.3
20260505032017 59 294 3.0 11.0 0.00 0.01 0.00 68 1016.4
20260505031515 59 294 2.0 11.0 0.00 0.01 0.00 69 1016.4
20260505031015 59 286 3.0 9.0 0.00 0.01 0.00 68 1016.4
20260505030515 60 261 3.0 9.0 0.00 0.01 0.00 68 1016.5
20260505030015 60 306 2.0 8.0 0.00 0.01 0.00 67 1016.4
20260505025517 60 290 1.0 6.0 0.00 0.01 0.00 67 1016.4
20260505025014 60 279 0.0 5.0 0.00 0.01 0.00 69 1016.5
20260505024530 60 273 1.0 6.0 0.00 0.01 0.00 68 1016.5
20260505024017 59 341 0.0 9.0 0.00 0.01 0.00 69 1016.5
20260505023516 59 293 2.0 8.0 0.00 0.01 0.00 69 1016.6
20260505023014 59 308 3.0 8.0 0.00 0.01 0.00 68 1016.6
20260505022014 60 272 2.0 9.0 0.00 0.01 0.00 68 1016.6
20260505021528 60 275 2.0 7.0 0.00 0.01 0.00 67 1016.6
20260505021013 60 282 1.0 9.0 0.00 0.01 0.00 68 1016.6
20260505020513 60 285 4.0 10.0 0.00 0.01 0.00 66 1016.7
20260505020013 61 263 3.0 9.0 0.00 0.01 0.00 66 1016.8
20260505015517 62 296 2.0 7.0 0.00 0.01 0.00 65 1016.8
20260505015010 61 80 1.0 7.0 0.00 0.01 0.00 66 1016.8
20260505014510 61 294 2.0 6.0 0.00 0.01 0.00 66 1016.8
20260505014009 61 294 2.0 7.0 0.00 0.01 0.00 65 1016.9
20260505013508 61 313 2.0 7.0 0.00 0.01 0.00 65 1016.9
20260505013008 60 267 2.0 7.0 0.00 0.01 0.00 67 1017.0
20260505012512 60 20 3.0 7.0 0.00 0.01 0.00 67 1017.0
20260505012009 59 352 2.0 9.0 0.00 0.01 0.00 67 1017.0
20260505011508 59 50 2.0 9.0 0.00 0.01 0.00 68 1017.0
20260505011008 59 255 2.0 7.0 0.00 0.01 0.00 68 1017.0
20260505010507 59 20 2.0 7.0 0.00 0.01 0.00 69 1017.0
20260505010006 59 246 2.0 6.0 0.00 0.01 0.00 69 1017.0
20260505005505 59 267 1.0 8.0 0.00 0.01 0.00 70 1016.9
20260505005005 59 279 1.0 7.0 0.00 0.01 0.00 70 1016.9
20260505004510 59 298 1.0 8.0 0.00 0.01 0.00 70 1016.8
20260505004003 60 319 2.0 8.0 0.00 0.01 0.00 69 1016.8
20260505003503 60 249 1.0 8.0 0.00 0.01 0.00 69 1016.8
20260505003003 60 278 1.0 6.0 0.00 0.01 0.00 71 1016.7
20260505002503 60 278 2.0 10.0 0.00 0.01 0.00 69 1016.6
20260505001502 60 335 2.0 8.0 0.00 0.01 0.00 70 1016.6
20260505001100 60 22 2.0 7.0 0.00 0.01 0.00 72 1016.5
20260505000559 60 275 2.0 8.0 0.00 0.01 0.00 72 1016.5
20260505000059 59 267 2.0 9.0 0.00 0.01 0.00 72 1016.5
20260504235557 59 38 2.0 9.0 0.00 0.01 0.00 73 1016.4
20260504235056 58 318 3.0 9.0 0.00 0.01 0.00 74 1016.4
20260504234557 58 283 2.0 10.0 0.00 0.01 0.00 75 1016.4
20260504234056 58 269 2.0 10.0 0.00 0.01 0.00 75 1016.3
20260504233557 57 347 3.0 9.0 0.00 0.01 0.00 76 1016.3
20260504233101 57 252 3.0 9.0 0.00 0.01 0.00 75 1016.3
20260504232556 57 272 2.0 7.0 0.00 0.01 0.00 75 1016.3
20260504232054 58 331 1.0 7.0 0.00 0.01 0.00 76 1016.2
20260504231554 57 305 1.0 7.0 0.00 0.01 0.00 77 1016.2
20260504231053 57 12 2.0 8.0 0.00 0.01 0.00 77 1016.1
20260504230552 57 316 2.0 8.0 0.00 0.01 0.00 78 1016.0
20260504230052 57 327 1.0 7.0 0.00 0.01 0.00 79 1015.9
20260504225552 56 14 1.0 8.0 0.00 0.01 0.00 79 1015.8
20260504225051 56 334 1.0 8.0 0.00 0.01 0.00 80 1015.9
20260504224550 56 57 1.0 7.0 0.00 0.01 0.00 81 1015.8
20260504224050 56 1 2.0 7.0 0.00 0.01 0.00 81 1015.8
20260504223550 56 135 2.0 5.0 0.00 0.01 0.00 82 1015.7
20260504223054 55 281 2.0 5.0 0.00 0.01 0.00 83 1015.6
20260504222547 55 30 1.0 5.0 0.00 0.01 0.00 83 1015.6
20260504222049 55 277 1.0 5.0 0.00 0.01 0.00 84 1015.5
20260504221046 55 305 0.0 4.0 0.00 0.01 0.00 84 1015.2
20260504220545 55 305 0.0 5.0 0.00 0.01 0.00 85 1015.0
20260504215543 55 322 1.0 8.0 0.00 0.01 0.00 85 1014.9
20260504215042 55 324 2.0 8.0 0.00 0.01 0.00 85 1014.9
20260504214544 55 327 0.0 5.0 0.00 0.01 0.00 85 1014.8
20260504214041 55 329 1.0 7.0 0.00 0.01 0.00 85 1014.7
20260504213541 55 330 0.0 5.0 0.00 0.01 0.00 86 1014.6
20260504213040 55 288 1.0 5.0 0.00 0.01 0.00 86 1014.5
20260504212542 55 319 0.0 2.0 0.00 0.01 0.00 85 1014.4
20260504212040 55 296 0.0 4.0 0.00 0.01 0.00 85 1014.2
20260504211537 55 342 1.0 6.0 0.00 0.01 0.00 85 1014.1
20260504211036 55 334 1.0 6.0 0.00 0.01 0.00 85 1014.0
20260504210536 55 331 0.0 5.0 0.00 0.01 0.00 84 1014.0
20260504210036 55 348 0.0 4.0 0.00 0.01 0.00 84 1013.9
20260504205535 55 348 0.0 5.0 0.00 0.01 0.00 84 1013.8
20260504205036 55 354 1.0 7.0 0.00 0.01 0.00 84 1013.9
20260504204551 55 336 2.0 7.0 0.00 0.01 0.00 84 1013.9
20260504204034 55 327 2.0 10.0 0.00 0.01 0.00 85 1013.7
20260504203534 55 329 1.0 10.0 0.00 0.01 0.00 85 1013.6
20260504203033 55 328 1.0 7.0 0.00 0.01 0.00 85 1013.6
20260504202532 55 14 0.0 7.0 0.00 0.01 0.00 85 1013.5
20260504202030 55 326 0.0 5.0 0.00 0.01 0.00 85 1013.4
20260504201531 55 304 1.0 5.0 0.00 0.01 0.00 85 1013.3
20260504200534 55 51 0.0 5.0 0.00 0.01 0.00 85 1013.2
20260504200028 55 326 1.0 5.0 0.00 0.01 0.00 85 1013.1
20260504195527 55 23 1.0 6.0 0.00 0.01 0.00 85 1013.1
20260504195027 55 40 1.0 6.0 0.00 0.01 0.00 85 1013.0
20260504194531 55 308 2.0 6.0 0.00 0.01 0.00 85 1013.0
20260504194026 55 360 1.0 5.0 0.00 0.01 0.00 84 1012.9
20260504193526 55 342 1.0 5.0 0.00 0.01 0.00 84 1012.8
20260504193025 55 335 1.0 7.0 0.00 0.01 0.00 84 1012.8
20260504192524 55 345 1.0 7.0 0.00 0.01 0.00 83 1012.7
20260504192023 55 320 2.0 7.0 0.00 0.01 0.00 83 1012.7
20260504191523 56 11 1.0 7.0 0.00 0.01 0.00 83 1012.7
20260504191022 56 52 1.0 7.0 0.00 0.01 0.00 83 1012.6
20260504190523 56 329 2.0 5.0 0.00 0.01 0.00 83 1012.6
20260504190025 56 33 0.0 4.0 0.00 0.01 0.00 83 1012.5
20260504185520 56 354 1.0 5.0 0.00 0.01 0.00 83 1012.4
20260504185020 56 205 1.0 5.0 0.00 0.01 0.00 83 1012.3
20260504184523 55 301 1.0 5.0 0.00 0.01 0.00 83 1012.3
20260504184019 55 13 1.0 4.0 0.00 0.01 0.00 83 1012.2
20260504183519 55 59 0.0 5.0 0.00 0.01 0.00 83 1012.2
20260504183018 55 322 1.0 5.0 0.00 0.01 0.00 83 1012.0
20260504182517 55 305 1.0 5.0 0.00 0.01 0.00 83 1012.0
20260504182016 55 311 1.0 6.0 0.00 0.01 0.00 83 1011.9
20260504181516 55 2 1.0 6.0 0.00 0.01 0.00 83 1011.8
20260504181015 55 312 1.0 7.0 0.00 0.01 0.00 83 1011.8
20260504180513 55 354 1.0 7.0 0.00 0.01 0.00 83 1011.8
20260504180014 55 20 1.0 3.0 0.00 0.01 0.00 82 1011.7
20260504175515 55 357 1.0 5.0 0.00 0.01 0.00 82 1011.7
20260504175012 56 33 1.0 8.0 0.00 0.01 0.00 81 1011.5
20260504174512 56 317 1.0 8.0 0.00 0.01 0.00 81 1011.5
20260504174013 56 46 2.0 5.0 0.00 0.01 0.00 81 1011.4
20260504173514 56 327 1.0 8.0 0.00 0.01 0.00 81 1011.5
20260504173012 56 307 1.0 7.0 0.00 0.01 0.00 81 1011.5
20260504172510 56 343 1.0 9.0 0.00 0.01 0.00 80 1011.4
20260504172009 56 360 2.0 9.0 0.00 0.01 0.00 80 1011.5
20260504171509 56 327 1.0 7.0 0.00 0.01 0.00 80 1011.4
20260504171012 56 290 1.0 5.0 0.00 0.01 0.00 80 1011.3
20260504170609 56 301 1.0 5.0 0.00 0.01 0.00 80 1011.3
20260504151056 57 239 1.0 7.0 0.00 0.01 0.00 77 1010.5
20260504150556 57 336 2.0 7.0 0.00 0.01 0.00 78 1010.6
20260504141047 58 314 2.0 7.0 0.00 0.01 0.00 77 1010.2
20260504140547 58 16 2.0 10.0 0.00 0.01 0.00 77 1010.1
20260504130538 58 288 1.0 7.0 0.00 0.01 0.00 75 1009.6